User: anonymous   Login
Location: Unspecified
(0.0000°N, 0.0000°E)
Time: 18:54:02
(UTC+00:00)
Language:

ADEOS II - Orbit

View from above orbital plane
View from above orbital plane
View from above satellite
View from above satellite

Ground track
Ground track

The orbit data is extracted from the following two-line orbital elements,

1 27597U 02056A   19340.72236038 +.00000037 +00000-0 +32353-4 0  9991
2 27597 098.4953 288.4455 0001117 134.9672 225.1600 14.27422609884179
Epoch (UTC): 06 December 2019 17:20:11
Eccentricity: 0.0001117
inclination: 98.4953°
perigee height: 799 km
apogee height: 801 km
right ascension of ascending node: 288.4455°
argument of perigee: 134.9672°
revolutions per day: 14.27422609
mean anomaly at epoch: 225.1600°
orbit number at epoch: 88417

The dashed part of the orbit path shows where the satellite is in the earth's shadow,  

DLR